Regional Weather Roundup
Issued by NWS

Home | Current Version | Previous Version | Graphics & Text | Print | Product List | Glossary On
Versions: 1 2 3 4 5 6 7 8 9 10 11 12 13 14 15 16 17 18 19 20 21 22 23 24 25 26 27 28 29 30 31 32 33 34 35 36 37 38 39 40 41 42 43 44 45 46 47 48 49 50
000
ASUS43 KDTX 231110
RWRMI
MICHIGAN HOURLY REGIONAL WEATHER ROUNDUP
NATIONAL WEATHER SERVICE DETROIT/PONTIAC MI
ISSUED BY NATIONAL WEATHER SERVICE GRAND RAPIDS MI
600 AM EST MON JAN 23 2017

NOTE: "FAIR" INDICATES FEW OR NO CLOUDS BELOW 12,000 FEET WITH NO
SIGNIFICANT WEATHER AND/OR OBSTRUCTION TO VISIBILITY.

MIZ047>049-052>055-059>063-066>070-074>076-081>083-231200-
SOUTHEAST LOWER MICHIGAN

CITY           SKY/WX    TMP DP  RH WIND       PRES   REMARKS
ADRIAN         FOG       43  43 100 NE10      29.62R VSB 3/4
ALMA           CLOUDY    38  37  99 N5        29.67S FOG     WCI  34
ANN ARBOR      CLOUDY    42  42 100 N7        29.62S FOG
BAD AXE        FOG       37  37 100 E3        29.68S VSB 1
DETROIT CITY   LGT RAIN  40  40 100 NE7       29.64S FOG
DETROIT        FOG       42  42 100 NE8       29.63S VSB 1
FLINT          CLOUDY    40  39  97 E7        29.65R FOG
GROSSE ILE     FOG       40  40  99 NE10      29.61S VSB 3/4 WCI  34
HILLSDALE      FOG       41  41 100 NE6       29.60S VSB 1/2
HOWELL         FOG       39  38  97 N3        29.63S VSB 3/4

CITY           SKY/WX    TMP DP  RH WIND       PRES   REMARKS
JACKSON        FOG       41  39  93 NW7       29.62R VSB 1
LANSING        FOG       39  37  92 N6        29.65S VSB 3/4 WCI  35
MASON          CLOUDY    39  39 100 N3        29.64R FOG
MONROE         DRIZZLE   41  41 100 NE7       29.61S
MT. CLEMENS    FOG       39  39 100 N7        29.63R VSB 1   WCI  34
PONTIAC        FOG       39  37  92 NE7       29.62S VSB 1/2 WCI  34
PORT HOPE        N/A     36  36 100 NE10      29.67S WCI  28
PORT HURON     LGT RAIN  37  37 100 N5        29.66R WCI  34
TRI CITIES     FOG       36  36 100 NE8       29.67S VSB 1/4 WCI  30
YPSILANTI      CLOUDY    43  43 100 NE10      29.63S FOG
$$
MIZ043>046-050>051-056>058-064>065-071>073-077>080-231200-
SOUTHWEST LOWER MICHIGAN

CITY           SKY/WX    TMP DP  RH WIND       PRES   REMARKS
BATTLE CREEK   CLOUDY    40  40 100 N7        29.64S FOG
BENTON HARBOR  CLOUDY    39  37  92 N7        29.69R FOG     WCI  34
BIG RAPIDS     CLOUDY    37  37  98 CALM      29.68R FOG
COLDWATER      CLOUDY    41  41 100 N7        29.62S FOG
HOLLAND        CLOUDY    39  37  92 NW5       29.69R
GRAND RAPIDS   DRIZZLE   40  38  93 N7        29.67S FOG
KALAMAZOO      FOG       41  39  93 N10       29.66R VSB 1/2
MARSHALL       CLOUDY    40  39  97 N3        29.63S FOG
MOUNT PLEASANT FOG       38  38  99 N5        29.66F VSB 1   WCI  35
MUSKEGON       CLOUDY    38  36  92 N3        29.71R
STURGIS        CLOUDY    40  40 100 N10       29.62S FOG     WCI  34
$$
MIZ016>042-231200-
NORTHERN LOWER MICHIGAN

CITY           SKY/WX    TMP DP  RH WIND       PRES   REMARKS
ALPENA         CLOUDY    37  36  96 E8        29.72S FOG     WCI  31
BEAVER ISLAND  CLOUDY    35  35 100 E5        29.72R FOG     WCI  31
BELLAIRE       FOG       34  34 100 CALM      29.71S VSB 1/4
CADILLAC       FOG       38  36  94 CALM      29.67S VSB 3/4
CHARLEVOIX     FOG       35  35 100 CALM      29.74R VSB 1/2
GAYLORD        FOG       38  35  89 CALM      29.68S VSB 1/4
HOUGHTON LAKE  CLOUDY    37  36  96 N5        29.68S FOG     WCI  33
MANISTEE       FOG       37  36  96 CALM      29.71R VSB 1/4
OSCODA         CLOUDY    38  38  97 NE8       29.69S FOG     WCI  33
PELLSTON       FOG       35  34  96 CALM      29.72S VSB 1/2
TRAVERSE CITY  FOG       37  36  96 CALM      29.70R VSB 1/2
LUDINGTON      FOG       37  37 100 N5        29.70S VSB 1/2 WCI  33
$$
MIZ007>008-015-231200-
EASTERN UPPER MICHIGAN

CITY           SKY/WX    TMP DP  RH WIND       PRES   REMARKS
KINROSS        MIX PCPN  35  34  96 E15       29.74S FOG     WCI  25
MACKINAC ISLAN FOG       35  35 100 E12G17    29.73R VSB 1/4 WCI  27
NEWBERRY       FOG       34  33  96 E6        29.72S VSB 1/4 WCI  29
S. S. MARIE    CLOUDY    37  35  92 E6        29.75S FOG     WCI  32
$$
MIZ004>006-011>014-085-231200-
CENTRAL UPPER MICHIGAN

CITY           SKY/WX    TMP DP  RH WIND       PRES   REMARKS
MANISTIQUE     FOG       34  33  97 NE5       29.72S VSB 3/4 WCI  30
ESCANABA       CLOUDY    36  36 100 NW3       29.72S FOG
SAWYER-GWINN   FOG       33  33  99 N3        29.71S VSB 1
$$
MIZ001>003-009>011-084-231200-
WESTERN UPPER MICHIGAN

CITY           SKY/WX    TMP DP  RH WIND       PRES   REMARKS
IRON MOUNTAIN  CLOUDY    34  31  88 NW7       29.70F WCI  28
HOUGHTON       FOG       34  32  92 W9        29.72S VSB 1/4 WCI  27
COPPER HARBOR    N/A     36  35  96 N7        29.72S WCI  30
IRONWOOD       CLOUDY    34  33  96 CALM      29.75S
$$

ABBREVIATIONS USED IN REMARKS
   TC - TEMPERATURE IN CELSIUS
  WCI - WIND CHILL INDEX
   HX - HEAT INDEX
  VSB - VISIBILITY





USA.gov is the U.S. government's official web portal to all federal, state and local government web resources and services.